Location: Sungai Bunut
(2.6333°N, 113.7333°E)
Time: 01:33:25
(UTC+00:00)

S-56A Canister/Altair - Pass Details

Date: 12 December 2023
Orbit: 640 x 2488 km, 38.9° (Epoch: 24 February)

Event Time Altitude Azimuth Distance (km) Brightness Sun altitude
Rises 22:57:25 0° 242° (WSW) 5,705 11.6 7.8°
Reaches altitude 10° 23:01:47 10° 247° (WSW) 4,453 11.0 8.8°
Maximum altitude 23:12:31 44° 315° (NW) 1,990 9.4 11.2°
Drops below altitude 10° 23:19:49 10° 26° (NNE) 3,046 10.7 12.9°
Sets 23:22:17 0° 33° (NNE) 3,792 11.2 13.5°
